FW0794 Weather Reports


time (UTC)temp
C
wind
direction
speed
KPH
gust
KPH
rain 1hr
cm
rain 24hr
cm
rain mn
cm
humidity
%
barometer
mb
20260503193118 16 146 0.0 0.0 0.00 0.00 0.03 76 974.8
20260503191616 16 139 0.0 0.0 0.00 0.00 0.03 77 974.8
20260503184605 16 161 0.0 0.0 0.00 0.00 0.03 77 974.8
20260503183053 16 126 0.0 0.0 0.00 0.00 0.03 77 974.8
20260503181553 15 156 0.0 0.0 0.00 0.00 0.03 78 974.8
20260503180057 15 198 0.0 0.0 0.00 0.00 0.03 80 974.8
20260503174552 15 256 0.0 0.0 0.00 0.00 0.03 79 974.8
20260503173044 15 241 0.0 0.0 0.00 0.00 0.03 80 974.8
20260503171542 15 209 0.0 0.0 0.00 0.00 0.03 80 974.8
20260503110104 12 91 0.0 0.0 0.00 0.00 0.00 85 974.8
20260503100105 13 91 0.0 0.0 0.00 0.00 0.00 83 974.8
20260503081551 13 78 0.0 0.0 0.00 0.00 0.00 80 974.8
20260503071554 13 78 0.0 0.0 0.00 0.00 0.00 78 974.8
20260503054603 14 82 0.0 0.0 0.00 0.00 0.00 77 974.8
20260503053042 14 87 0.0 0.0 0.00 0.00 0.00 77 974.8
20260503051542 14 100 0.0 0.0 0.00 0.00 0.00 77 974.8
20260503050040 14 69 0.0 0.0 0.00 0.00 0.00 77 974.8
20260503044545 14 50 0.0 0.0 0.00 0.00 0.00 77 974.8
20260503043051 14 67 0.0 0.0 0.00 0.00 0.00 77 974.8
20260503041540 15 75 0.0 0.0 0.00 0.00 0.00 78 974.8
20260503040039 14 89 0.0 0.0 0.00 0.00 0.00 78 974.8
20260503034545 15 88 0.0 0.0 0.00 0.00 0.00 78 974.8
20260503033041 15 92 0.0 0.0 0.00 0.00 0.00 78 974.8
20260503031538 14 78 0.0 0.0 0.00 0.00 0.00 77 974.8
20260503030038 15 176 0.0 0.0 0.00 0.00 0.00 76 974.8
20260503024538 15 232 0.0 0.0 0.00 0.00 0.00 76 974.8
20260503023038 15 222 0.0 0.0 0.00 0.00 0.00 76 974.8
20260503021536 15 268 0.0 0.0 0.00 0.00 0.00 75 974.8
20260503020036 15 261 0.0 0.0 0.00 0.00 0.00 74 974.8
20260503014535 15 240 0.0 0.0 0.00 0.00 0.00 74 974.8
20260503013040 16 261 0.0 0.0 0.00 0.00 0.00 72 974.8
20260503011536 16 274 0.0 0.0 0.00 0.00 0.00 72 974.8
20260503010035 16 252 0.0 0.0 0.00 0.00 0.00 72 974.8
20260503004536 16 333 0.0 0.0 0.00 0.00 0.00 71 974.8
20260503003043 17 292 0.0 0.0 0.00 0.00 0.00 70 974.8
20260503001540 17 264 0.0 0.0 0.00 0.00 0.00 69 974.8
20260503000036 17 281 0.0 0.0 0.00 0.00 0.00 69 974.8
20260502234540 17 294 0.0 0.0 0.00 0.00 0.00 69 974.8
20260502233038 17 237 0.0 0.0 0.00 0.00 0.00 69 974.8
20260502231528 17 267 0.0 0.0 0.00 0.00 0.00 69 974.8
20260502230033 17 288 0.0 0.0 0.00 0.00 0.00 69 974.8
20260502224527 17 322 0.0 0.0 0.00 0.00 0.00 71 974.8
20260502223037 17 219 0.0 0.0 0.00 0.00 0.00 72 974.8
20260502221523 17 265 0.0 0.0 0.00 0.00 0.00 72 974.8
20260502220023 16 279 0.0 0.0 0.00 0.00 0.00 74 974.8
20260502214519 16 278 0.0 0.0 0.00 0.00 0.00 74 974.8
20260502213017 16 221 0.0 0.0 0.00 0.00 0.00 76 974.8
20260502211516 16 251 0.0 0.0 0.00 0.00 0.00 78 974.8
20260502210014 15 277 0.0 0.0 0.00 0.00 0.00 80 974.8
20260502204512 15 273 0.0 0.0 0.00 0.00 0.00 80 974.8
20260502203009 15 269 0.0 0.0 0.00 0.00 0.00 81 974.8
20260502201505 15 242 0.0 0.0 0.00 0.00 0.00 81 974.8
20260502200004 15 272 0.0 0.0 0.00 0.00 0.00 82 974.8
20260502194509 15 281 0.0 0.0 0.00 0.00 0.00 82 974.8